GFSGBSN_con_3kmhel_237.txt.gz
Helicity
41 36 34 30 27 23 20 21 21 16 17 18 21 23 27 29 32 35 36 39 44 47 52 53 45 43 29 53 89 128 207 165 218 157 115 127 117 89 75 76 92 76 71 80 73 149 88
32 30 33 28 24 21 15 10 9 9 13 14 16 18 19 22 24 26 30 31 29 24 23 29 24 31 -3 48 90 169 242 227 237 245 129 128 162 121 119 75 92 66 79 94 88 60 104
19 21 20 16 10 6 1 2 12 14 13 13 16 22 22 21 23 22 23 22 20 15 7 11 16 -8 5 37 123 140 135 204 202 232 251 98 109 191 138 161 76 90 110 92 92 95 83
9 11 7 8 3 1 7 7 11 17 19 21 19 17 16 16 14 11 7 2 -5 -22 -18 4 7 -4 -20 -28 34 102 99 148 179 165 175 280 267 169 267 138 157 105 103 132 78 99 97
-8 4 5 6 -0 -0 1 8 14 19 18 18 15 17 19 15 13 13 11 -6 -46 -74 -44 -35 -53 -57 -8 18 -34 40 75 119 170 131 103 166 241 202 158 224 189 156 156 100 103 78 96
-0 -0 -1 -3 -4 -3 -2 4 20 21 18 13 15 20 17 10 6 1 6 15 7 -89 12 4 -25 -48 -9 62 73 89 61 132 205 207 152 184 252 217 189 198 251 195 138 133 80 85 36
-1 1 -3 -8 -12 -10 -3 3 19 25 16 9 12 14 10 8 -0 -9 13 11 39 53 38 35 -23 -33 -39 -3 -32 40 14 66 138 232 237 162 260 258 159 147 141 155 89 80 64 38 40
-2 -1 -5 -9 -16 -13 -6 2 16 21 17 9 6 2 2 3 -5 -14 27 61 50 52 46 -13 5 -20 -44 -32 3 1 -30 56 110 219 177 172 206 133 117 138 96 135 202 114 49 39 77
-2 -4 -6 -11 -18 -18 -16 -7 11 18 13 7 -2 -7 -9 2 -47 11 29 52 51 51 70 35 58 12 -17 -12 -7 44 58 -9 104 179 176 173 114 90 98 121 144 60 138 156 113 80 99
-3 -4 -5 -8 -17 -24 -14 -3 14 20 15 5 -3 -12 -8 4 3 27 52 14 58 62 57 50 15 30 -26 -28 -10 53 34 44 45 164 96 118 93 33 86 115 118 138 61 107 143 142 176
-1 -2 -0 -4 -18 -28 -4 11 23 26 20 6 -5 -18 -6 -3 13 36 10 9 27 45 188 42 34 52 3 18 -15 12 58 68 80 62 141 89 143 109 82 65 72 132 68 52 119 107 134
2 -0 2 -4 -17 -19 -4 31 35 32 25 7 -8 -20 -18 44 27 15 -0 16 32 97 190 41 9 14 -8 -5 6 28 20 -23 40 53 15 147 126 115 78 62 24 58 89 107 91 84 176
4 6 5 -3 -6 -0 17 31 33 31 23 9 -10 -16 -4 2 9 -10 10 28 70 134 55 66 13 19 13 1 -6 -26 98 81 54 86 103 44 124 142 104 128 38 108 181 268 267 280 248
15 13 12 8 9 13 23 29 27 22 14 2 -7 -10 37 4 -9 -4 13 31 104 99 65 23 32 28 29 25 11 3 10 74 124 127 160 99 7 26 21 95 98 89 146 405 325 226 175
9 20 22 16 21 20 22 21 19 12 7 -6 -11 33 20 19 -3 6 32 118 124 55 24 23 21 17 21 11 -5 4 2 25 69 115 161 180 69 221 208 145 128 92 116 119 293 221 224
14 28 26 19 23 22 22 16 14 10 1 -9 10 24 41 -14 -2 14 81 118 90 41 18 20 43 22 25 11 4 6 22 25 58 107 155 65 112 51 231 159 167 187 216 111 185 217 323
20 31 28 25 23 26 22 18 14 10 7 -3 11 45 48 -13 7 51 115 93 71 27 10 31 14 23 13 10 16 7 8 25 48 77 82 109 52 61 64 38 107 213 165 231 193 131 284
29 31 34 34 27 27 28 22 12 10 5 3 18 62 35 -0 75 90 104 85 56 52 36 38 30 18 17 5 20 13 14 21 -5 51 85 54 73 143 120 95 74 -81 57 222 352 282 223
37 38 56 34 34 35 31 18 13 17 2 1 46 39 33 16 96 103 80 83 64 66 65 54 42 38 11 11 28 -3 2 18 14 36 51 47 38 127 44 9 33 -69 -186 -152 -68 -52 216
41 48 50 38 33 44 42 29 25 26 6 15 63 72 42 34 53 80 107 87 87 58 53 57 44 29 30 22 7 17 9 10 -7 4 16 -7 57 74 135 44 37 195 162 -30 -112 26 54
43 50 54 46 39 50 45 39 41 37 19 26 64 64 63 88 77 73 95 106 73 85 79 68 59 60 42 73 26 24 -16 -13 -10 42 25 21 33 86 96 96 89 79 107 146 129 -3 -49
58 54 45 64 50 50 48 42 40 48 31 50 99 82 59 49 66 70 114 86 101 68 95 57 83 53 65 59 20 9 -16 -19 -23 -8 -22 -27 1 13 52 46 33 51 55 73 80 96 80
56 50 56 67 65 45 47 50 37 46 38 72 51 67 60 65 76 79 85 83 87 99 41 35 44 51 37 35 25 7 8 12 8 3 -6 -13 15 15 8 24 52 52 23 -3 3 17 30
56 59 58 68 71 63 47 49 52 43 19 70 40 60 107 68 76 67 83 74 75 81 62 38 32 51 26 39 29 30 24 37 28 20 11 17 12 12 12 -2 2 -11 5 22 8 -12 23
60 66 64 59 67 71 73 56 53 56 31 53 67 71 115 75 47 50 55 56 53 64 78 65 38 31 31 58 64 56 49 58 56 46 26 20 22 45 63 1 -8 -3 -15 39 46 52 54
60 61 65 59 62 68 72 67 58 58 56 44 53 69 104 115 42 19 50 53 60 70 63 54 66 100 76 98 93 113 69 36 53 51 37 -9 -4 15 38 26 10 15 24 30 16 43 2
60 61 60 63 60 66 70 77 71 75 66 53 73 52 93 117 30 12 42 69 44 66 73 35 93 109 88 124 133 103 67 26 67 61 111 82 31 8 -6 37 36 16 20 29 20 14 64
56 62 64 67 67 64 56 61 67 65 65 68 66 63 84 107 58 36 26 12 30 71 92 60 62 72 80 107 124 87 106 60 63 32 48 62 51 -22 -10 15 30 45 69 71 49 47 38
57 66 65 68 71 74 67 67 54 51 59 63 54 50 65 95 89 93 70 38 15 17 35 58 85 115 94 92 113 104 90 76 63 72 12 58 23 -0 -88 -92 80 85 58 25 -11 -18 -39

GFSGBSN_con_3kmhel_240.txt.gz
Helicity
40 35 27 29 22 29 31 29 29 24 25 26 26 27 27 26 24 21 17 16 17 14 10 14 25 31 27 39 27 68 39 36 135 176 230 110 107 125 127 106 115 95 68 94 154 149 88
31 23 17 17 20 24 24 24 22 22 23 21 19 21 26 26 28 25 18 17 15 15 19 11 13 33 -5 -6 49 176 201 187 164 190 225 165 109 92 126 111 111 83 87 99 71 101 157
19 14 13 17 23 19 23 17 18 20 18 17 22 20 19 20 21 18 19 6 -8 2 -6 -22 -22 -12 -15 -17 60 93 142 130 145 186 209 229 85 56 110 148 123 100 128 88 98 93 102
8 4 5 8 7 4 8 11 13 18 17 16 20 22 25 23 14 -2 3 5 -0 -36 -27 -35 -50 -84 -102 -55 -61 8 24 34 59 103 175 216 248 305 355 133 160 177 113 183 114 94 79
-4 7 8 7 3 1 -0 -0 14 12 12 15 20 19 15 8 5 5 13 28 -1 -37 -2 -10 -19 -50 -88 -31 -17 11 44 79 95 109 91 132 217 313 303 276 274 259 240 137 119 84 117
3 2 5 6 -0 -9 -6 -2 6 10 9 12 13 9 9 5 4 8 64 104 -0 -2 68 47 -3 -24 48 -10 -26 -3 1 10 101 239 226 132 188 240 239 239 267 248 208 215 134 135 92
3 5 6 4 -1 -10 -11 -6 -1 6 7 9 9 4 4 3 -17 -2 84 18 69 64 71 45 6 20 -13 -9 3 -7 57 -16 -5 104 196 124 229 269 213 159 118 125 136 111 144 67 48
5 -0 3 2 -2 -7 -13 -8 1 4 4 8 5 -0 -4 -13 -45 -13 13 47 53 74 49 8 4 83 63 13 -20 13 28 58 -11 155 59 172 149 128 149 141 126 145 124 149 71 40 37
-1 -6 3 2 -5 -13 -17 -9 -2 3 7 8 5 -0 -11 -19 -40 8 49 61 73 55 64 8 44 54 45 53 9 22 -0 43 51 65 56 81 109 54 89 114 183 127 171 134 184 63 57
-1 -10 -2 -1 -4 -13 -20 -10 -3 6 8 5 2 -5 -1 -5 4 11 70 28 80 89 77 109 16 47 31 41 46 68 26 46 43 32 79 88 32 66 45 91 122 175 94 63 96 136 162
15 -0 3 7 2 -5 -14 -11 1 5 4 2 -3 -11 -2 -5 -7 31 17 19 50 57 151 23 29 34 22 19 26 13 49 -13 32 7 101 90 128 90 87 2 42 136 125 97 72 92 171
22 10 4 7 7 1 -3 10 12 9 1 -5 -10 -14 -17 28 67 3 -3 4 42 92 161 47 26 31 26 14 4 32 -24 16 4 27 38 96 113 148 79 25 18 3 34 126 76 93 229
20 19 12 6 8 8 5 14 19 15 4 -7 -16 -16 -1 -7 -4 -36 -6 29 87 148 51 85 28 22 28 17 -0 37 9 15 -16 59 115 103 64 89 136 179 34 43 69 186 154 172 175
21 33 22 16 12 11 9 14 19 15 2 -10 -18 -16 12 4 -13 -9 15 53 138 119 87 18 23 10 35 25 -7 -11 8 56 84 49 155 62 93 254 208 183 161 48 88 280 319 253 192
25 34 31 29 20 17 12 12 12 10 -1 -17 -24 24 23 47 -0 -1 49 116 155 96 66 46 14 44 29 8 8 -25 16 33 29 51 33 22 18 284 328 201 194 143 71 58 163 231 220
33 32 40 36 24 19 15 10 11 6 -2 -15 1 17 19 32 -7 16 79 109 107 76 52 44 68 40 47 16 13 17 -9 14 -2 51 69 47 -57 -18 355 269 140 99 153 231 141 120 202
41 40 50 38 31 21 17 11 11 5 -3 -8 13 33 37 -3 5 53 101 94 83 66 49 76 51 38 15 17 8 19 10 31 -16 65 46 78 -15 35 37 34 157 323 209 168 206 87 93
48 43 48 41 42 28 24 18 10 4 -2 1 30 68 35 6 74 68 85 70 55 55 53 62 47 34 33 6 14 15 18 18 18 4 75 37 -10 38 25 -105 -20 29 114 16 281 130 344
56 49 57 61 43 43 28 25 17 7 5 19 63 49 24 20 68 72 67 66 38 44 53 74 51 24 11 13 61 4 5 27 31 3 -13 79 50 111 108 29 217 112 -64 -12 -7 -14 81
47 53 59 60 50 53 40 35 25 18 12 31 87 94 42 36 36 30 73 76 77 39 48 53 51 15 24 37 18 52 4 -13 -31 -15 35 -4 39 103 202 25 29 187 175 -53 17 90 107
52 52 55 65 64 51 56 49 43 35 29 66 85 72 67 91 57 21 58 72 60 58 82 40 44 28 34 79 58 40 -2 -13 -34 -23 5 -21 -44 58 78 73 54 39 69 119 128 49 112
60 51 58 65 76 54 58 61 55 49 55 95 98 87 65 44 64 48 71 68 48 47 82 83 56 40 33 56 39 13 -2 1 2 -46 -24 -50 -34 -14 27 59 39 81 82 84 57 16 26
60 64 61 63 82 57 60 65 56 61 66 93 65 69 81 57 66 62 61 55 56 56 45 39 54 40 38 35 11 13 8 16 30 40 9 -5 2 -9 11 50 35 40 4 11 29 36 35
70 61 62 58 65 70 59 62 65 63 36 129 65 85 90 56 63 64 36 53 53 63 56 37 37 47 12 1 26 23 14 14 18 20 17 18 18 4 9 19 -3 -0 -18 35 17 17 15
75 69 61 54 69 78 65 68 71 69 54 76 63 125 121 65 46 33 49 43 30 34 57 52 43 40 89 53 68 72 60 81 45 27 24 37 27 46 82 16 6 25 28 8 53 46 118
76 77 69 67 70 79 82 73 82 80 85 77 76 79 114 110 55 26 46 53 67 57 53 37 39 107 78 80 89 115 123 56 108 88 69 61 50 23 22 35 27 5 8 7 38 36 67
72 76 74 77 76 75 83 86 87 84 89 84 108 58 114 114 12 55 82 94 61 76 73 71 61 98 78 104 108 96 87 48 102 73 87 106 85 80 29 26 6 -7 50 66 36 71 106
73 80 79 80 79 69 70 81 81 87 94 98 83 57 90 97 30 27 40 40 40 53 74 67 91 62 112 102 107 100 97 88 82 44 51 54 81 52 30 28 10 160 129 127 81 51 53
79 72 80 80 79 78 74 81 72 77 80 95 116 78 72 86 66 60 54 26 6 -14 24 74 100 117 126 102 120 130 116 112 89 93 21 51 24 66 79 82 5 -44 -0 -8 1 25 20

GFSGBSN_con_3kmhel_246.txt.gz
Helicity
52 41 32 26 23 24 25 27 22 22 31 40 45 49 57 64 64 64 62 61 42 8 -17 -29 -22 -9 -11 10 48 57 88 115 158 203 196 199 231 221 184 180 181 211 54 131 87 40 38
54 35 18 16 16 16 18 16 14 20 30 34 40 43 49 58 65 65 63 52 23 -4 -20 -20 -23 -40 -48 -40 25 -3 41 73 97 108 145 182 168 275 263 226 225 206 127 77 82 82 52
55 36 16 8 12 16 28 22 7 27 30 29 33 39 52 68 77 75 57 42 5 -31 -13 -3 -5 -31 -64 -101 -15 -12 -22 32 47 31 45 146 201 220 344 291 266 210 143 121 131 135 96
41 30 16 15 13 20 26 26 16 11 9 17 34 47 62 77 79 70 70 64 23 -42 -10 9 15 -5 -118 -7 24 -10 -0 20 5 21 41 49 119 270 222 193 323 267 240 156 87 125 128
37 54 30 13 9 15 21 21 21 6 -1 4 18 44 63 77 84 109 141 89 -26 -26 34 63 30 15 -126 22 72 13 72 43 13 -27 1 41 108 212 263 261 290 247 269 222 95 167 164
38 37 26 19 19 23 27 25 19 -2 -7 -2 16 36 62 77 98 148 198 27 -15 7 28 31 14 17 5 53 107 111 100 94 16 -29 -26 59 96 179 255 300 340 306 259 247 158 89 169
20 27 21 19 19 25 29 36 32 6 -11 9 20 34 59 85 116 151 152 2 20 6 -5 -23 -1 20 57 143 102 110 95 105 83 97 -12 -22 94 189 261 204 252 260 308 198 143 144 193
27 42 21 14 18 24 28 27 24 10 2 22 29 41 57 73 93 119 20 65 51 36 8 5 18 31 105 165 141 96 85 13 66 -10 24 17 8 99 178 211 177 218 279 312 223 201 157
27 35 20 9 17 22 28 27 22 13 7 13 22 36 58 60 83 -0 14 56 59 45 40 -7 64 76 101 104 86 65 70 48 19 -12 8 9 6 44 126 149 152 206 219 198 225 321 220
26 30 21 11 17 24 26 23 18 5 4 7 10 26 53 85 12 26 24 25 66 47 85 13 56 38 55 48 76 40 61 61 76 42 14 -9 26 94 77 144 98 141 129 59 213 176 210
33 32 24 20 20 25 28 27 19 1 7 12 13 26 44 18 25 32 34 7 50 20 91 51 53 55 50 54 78 54 68 15 38 68 27 11 13 30 82 111 115 68 56 93 129 181 155
39 35 38 27 27 30 31 33 29 17 16 12 9 19 28 14 12 22 24 1 32 52 60 46 70 105 84 36 61 63 38 -7 10 64 47 -3 29 14 48 102 143 157 112 107 110 73 89
45 41 40 34 31 33 33 36 28 23 18 11 11 18 -1 -0 24 17 2 40 45 76 39 54 70 101 142 68 79 82 44 65 12 22 208 62 -29 -7 -26 104 90 138 163 297 187 171 158
44 49 49 39 34 35 36 34 35 25 21 20 26 28 5 9 5 32 24 55 81 43 41 45 78 92 156 105 89 75 62 64 48 28 8 52 -4 42 15 217 142 202 143 259 321 263 157
41 46 55 47 39 41 38 37 36 32 31 37 51 39 29 12 26 48 60 67 51 63 58 34 61 105 105 97 94 96 104 61 78 60 28 84 -4 -14 30 210 129 163 103 117 140 60 160
34 44 56 58 49 48 42 41 38 43 47 57 61 55 37 28 51 38 72 53 47 40 65 65 78 85 99 99 98 90 95 121 31 63 87 40 20 -36 -33 80 193 45 104 139 159 172 160
48 44 49 66 61 55 47 44 42 45 58 71 80 90 45 39 48 78 69 49 44 39 55 72 80 80 81 79 86 106 105 103 56 42 54 51 59 27 -13 247 178 -3 -2 114 193 241 153
57 61 58 65 74 59 53 48 47 51 70 104 106 104 55 64 91 73 71 59 43 50 58 41 65 72 87 69 88 96 103 112 42 68 70 66 65 -39 36 -12 102 64 1 -7 34 223 145
60 64 65 65 72 78 66 57 57 57 67 112 107 104 77 73 74 65 47 56 60 63 62 65 52 62 56 65 82 105 90 85 24 62 52 63 11 -14 -4 23 28 68 166 58 -28 -53 78
70 65 69 67 71 84 72 68 64 67 70 124 129 108 100 105 73 82 89 66 70 39 52 49 47 29 41 45 94 99 102 76 27 53 78 36 65 25 -23 10 57 31 94 46 16 9 -39
80 66 67 77 77 79 83 77 71 70 88 147 131 85 82 72 53 61 77 72 81 74 53 57 67 49 38 60 49 71 60 41 44 76 54 114 114 73 32 1 -2 26 72 88 25 -16 -8
80 85 76 78 86 88 95 93 89 85 127 161 133 113 110 97 92 93 72 53 76 73 80 68 95 53 76 73 87 67 66 63 82 88 47 58 111 71 38 41 2 56 80 131 170 163 49
89 88 82 78 79 87 95 96 98 83 160 160 132 137 125 112 110 114 74 70 48 80 70 85 79 84 67 60 63 69 108 140 145 106 67 82 93 56 77 99 36 51 145 133 124 213 143
96 95 82 78 79 80 96 98 105 87 100 160 161 166 150 112 102 94 66 59 54 64 71 74 100 91 60 64 36 34 42 34 28 35 92 69 61 73 66 44 103 71 42 98 73 52 98
111 90 87 81 77 82 91 98 100 88 65 145 189 191 151 106 94 72 46 53 39 60 110 96 63 72 109 68 39 42 46 52 28 48 55 72 75 74 65 53 28 45 45 19 83 83 94
104 102 93 90 81 87 92 97 96 95 91 131 125 178 167 105 84 102 84 84 69 79 109 110 147 122 103 65 61 82 80 67 52 56 30 72 69 110 123 101 50 34 -45 9 35 60 139
108 100 112 92 88 87 89 92 90 103 99 161 137 146 167 123 83 94 100 99 119 133 125 152 171 142 99 106 98 92 68 53 61 63 96 116 139 160 157 134 72 34 32 15 -9 38 88
104 111 107 103 87 87 89 88 95 102 105 180 157 145 141 115 98 88 99 122 178 155 152 122 159 139 152 114 100 70 72 57 59 46 95 132 169 147 162 175 112 76 29 1 4 48 42
108 113 111 102 95 91 88 90 107 91 107 160 184 160 133 107 73 61 27 14 60 81 129 163 156 118 100 128 86 84 78 93 102 84 82 114 161 188 201 164 102 49 38 57 105 77 50

GFSGBSN_con_3kmhel_249.txt.gz
Helicity
39 40 46 47 44 40 41 32 29 32 41 47 47 49 58 64 72 80 83 86 82 73 50 38 61 76 10 30 8 -31 -35 -17 -27 -11 24 78 165 175 189 287 295 168 32 130 140 124 123
29 33 39 42 40 38 34 30 29 30 38 44 49 54 63 71 77 88 86 79 64 38 13 16 24 18 -7 41 1 16 71 77 64 69 28 16 109 191 171 193 260 255 195 160 92 100 101
23 22 29 27 34 39 36 34 32 35 34 39 50 60 69 79 93 99 97 88 33 -2 -15 -17 -7 -27 -25 -26 -15 -56 -20 6 38 84 124 26 29 140 253 250 260 236 137 80 92 129 124
9 12 13 25 32 37 33 33 35 35 20 25 43 55 70 83 96 116 111 98 34 -4 -28 -9 22 -6 -79 1 -3 -39 26 -13 -4 17 57 19 46 77 170 133 215 223 187 66 54 132 162
5 15 28 20 21 29 29 30 30 24 11 15 36 54 77 93 111 140 139 110 -3 -6 9 31 22 11 -71 -8 67 37 107 36 65 66 42 -27 50 74 124 203 171 177 183 208 28 154 143
24 17 12 15 20 26 27 35 33 7 14 18 35 56 78 91 119 147 129 11 23 43 9 4 43 14 4 26 71 58 56 88 75 78 41 18 85 76 129 161 211 185 207 173 134 253 69
24 13 9 13 19 23 26 33 43 30 15 23 32 53 69 83 112 141 89 33 40 35 22 21 9 -5 55 53 52 13 50 73 56 54 55 32 69 21 58 79 115 114 216 177 212 201 269
29 41 18 16 23 26 27 30 29 26 22 22 35 53 67 80 102 112 73 65 69 40 29 10 20 43 115 89 41 41 80 67 110 117 32 50 30 43 19 2 87 206 82 194 206 167 255
41 42 39 28 28 33 32 34 31 29 26 25 34 50 67 79 106 41 52 57 55 50 74 -6 59 59 32 70 74 52 78 80 131 121 60 61 22 -8 10 10 25 126 91 157 171 165 227
35 34 39 30 27 39 42 39 37 35 24 21 29 43 62 96 31 20 55 40 62 55 93 19 32 31 35 43 96 48 45 92 117 135 54 37 22 8 11 16 8 57 70 59 212 69 246
26 30 33 39 37 40 46 42 39 32 18 21 28 38 56 60 28 38 23 28 37 38 86 25 22 26 66 51 85 69 38 44 119 143 85 43 24 8 27 28 91 16 71 22 123 78 50
22 27 29 40 39 42 47 46 43 31 17 22 29 34 50 39 36 10 19 27 36 75 48 43 40 65 56 44 65 65 50 27 60 90 94 59 33 37 18 72 -17 4 77 40 76 96 97
31 25 33 37 39 43 48 51 44 30 26 31 33 33 35 32 36 30 21 36 63 65 30 48 55 46 74 56 73 75 81 83 83 127 79 113 29 84 12 43 52 69 77 214 166 200 211
45 44 44 38 44 46 51 53 45 35 35 40 42 40 30 25 31 43 42 67 67 45 39 39 43 51 90 47 73 71 100 91 73 93 79 78 -10 15 36 64 50 34 68 106 183 156 204
41 32 41 51 51 44 56 58 52 41 43 51 58 51 46 50 36 52 77 70 47 46 55 51 44 69 51 46 80 72 79 90 89 85 95 71 65 7 67 256 98 17 55 69 107 117 165
47 38 39 52 58 46 58 62 61 51 52 64 70 72 59 70 70 78 92 49 56 52 62 53 64 57 57 35 50 71 80 109 66 61 48 65 63 50 16 205 119 75 50 47 92 115 173
64 54 52 53 57 53 57 65 66 65 64 72 96 104 97 87 86 107 75 55 67 44 51 63 59 60 52 48 53 65 77 99 46 62 52 49 52 42 -49 55 110 -4 70 60 166 132 166
88 65 63 53 59 65 56 69 70 77 89 124 130 135 132 110 118 90 80 80 76 87 65 48 56 57 63 39 49 63 80 88 56 43 57 57 57 24 34 82 -8 1 28 -63 -43 277 83
88 81 76 68 64 71 62 76 75 74 98 140 159 141 129 122 98 83 72 86 81 85 80 80 69 58 61 54 49 63 77 86 37 28 51 46 54 73 -11 -4 0 10 70 17 -81 -55 18
95 77 94 74 66 72 75 76 81 75 83 172 198 165 159 143 91 82 100 81 87 64 67 69 65 59 67 62 73 52 62 68 41 66 45 47 85 87 88 57 14 26 88 68 -1 -19 6
76 84 96 70 86 75 80 80 84 83 88 192 228 150 128 118 118 99 101 68 86 85 71 66 73 62 68 64 59 57 57 42 54 101 78 53 84 71 46 61 30 48 69 79 39 37 42
82 88 85 75 89 87 81 94 86 87 123 189 207 188 178 123 126 128 100 69 76 78 100 70 69 66 66 71 69 65 59 64 64 83 82 69 85 66 81 48 29 54 81 60 59 55 121
95 95 87 90 81 86 94 108 98 91 180 228 181 200 157 160 161 166 113 99 59 85 55 69 58 84 69 59 60 46 80 104 108 77 70 71 79 76 70 45 52 115 147 71 52 69 44
102 104 101 91 91 86 100 113 104 97 115 186 174 185 189 169 149 124 92 96 66 53 71 60 81 90 41 66 46 53 58 35 52 45 73 71 62 68 68 66 209 118 39 34 41 60 74
297 101 121 106 100 95 99 117 119 102 75 159 169 204 164 158 141 135 116 102 63 36 48 55 53 51 100 78 52 59 66 69 50 59 69 64 68 65 83 104 70 137 128 70 47 43 64
338 104 102 111 128 111 101 111 122 110 79 159 172 178 160 116 110 124 141 124 118 112 126 102 121 116 116 83 79 88 91 69 64 51 78 116 77 87 85 125 131 79 29 5 27 82 145
331 140 106 129 131 114 116 110 112 112 101 166 143 159 172 139 100 140 151 131 134 155 132 148 148 133 116 108 93 93 84 74 84 88 89 100 92 119 133 116 57 68 34 10 143 105 6
235 350 118 130 127 106 120 117 114 114 119 198 165 139 142 136 107 103 130 140 180 164 171 118 170 125 130 108 86 71 104 79 76 68 86 101 116 106 132 169 103 82 73 83 51 32 63
193 444 130 114 122 118 118 117 118 109 134 188 199 188 140 131 98 119 107 114 95 123 174 183 105 81 78 90 72 96 96 89 89 84 87 97 121 135 136 102 103 76 40 58 89 88 72